User: anonymous   Login
Location: Unspecified
(0.0000°N, 0.0000°E)
Time: 18:42:00
(UTC+00:00)
Language:

VZLUSAT 1 - Orbit

View from above orbital plane
View from above orbital plane
View from above satellite
View from above satellite

Ground track
Ground track

The orbit data is extracted from the following two-line orbital elements,

1 42790U 17036AB  19077.58084422 +.00001922 +00000-0 +84310-4 0  9990
2 42790 097.3646 137.9020 0011062 184.3845 175.7297 15.23122903096274
Epoch (UTC): 18 March 2019 13:56:24
Eccentricity: 0.0011062
inclination: 97.3646°
perigee height: 489 km
apogee height: 504 km
right ascension of ascending node: 137.9020°
argument of perigee: 184.3845°
revolutions per day: 15.23122903
mean anomaly at epoch: 175.7297°
orbit number at epoch: 9627

The dashed part of the orbit path shows where the satellite is in the earth's shadow,  

DLR